Overview Statistics Trail Chart Weather Telemetry Raw packets
 

This is the latest recevied weather packets stored in our database for station/object F1DKL-13. If no packets are shown the sender has not sent any weather packets the latest 10 day(s).

<< 2 3 4 5 6 7 8 >>
Time Temp. Humidity Pressure Rain* Wind** Luminosity Snow
1778063104 13.33° C 58% 1018.3 hPa 1.02 mm - - -
1778062804 13.33° C 56% 1018.3 hPa 1.02 mm - - -
1778062505 13.33° C 54% 1018.3 hPa 1.02 mm - - -
1778062204 13.33° C 52% 1018.3 hPa 1.02 mm - - -
1778061604 15° C 48% 1018.3 hPa 1.02 mm - - -
1778061304 16.11° C 49% 1017.2 hPa 0 mm - - -
1778061004 17.22° C 48% 1017.2 hPa 0 mm - - -
1778060704 17.78° C 49% 1017.2 hPa 0 mm - - -
1778060404 18.89° C 51% 1017.2 hPa 0 mm - - -
1778060104 19.44° C 52% 1017.2 hPa 0 mm - - -
1778059804 20° C 57% 1017.2 hPa 0 mm - - -
1778059504 19.44° C 65% 1017.2 hPa 0 mm - - -
1778059204 18.89° C 74% 1017.2 hPa 0 mm - - -
1778058933 18.33° C 98% 1017.2 hPa 1.02 mm - - -
1778058604 17.78° C 98% 1017.2 hPa 1.02 mm - - -
1778058304 16.11° C 98% 1017.2 hPa 1.02 mm - - -
1778058004 14.44° C 98% 1017.2 hPa 1.02 mm - - -
1778057704 13.89° C 98% 1017.2 hPa 1.02 mm - - -
1778057404 12.22° C 98% 1017.2 hPa 1.02 mm - - -
1778057104 12.22° C 98% 1017.2 hPa 1.02 mm - - -
1778056804 12.22° C 94% 1017.2 hPa 1.02 mm - - -
1778056504 12.22° C 95% 1017.2 hPa 1.02 mm - - -
1778056204 12.78° C 97% 1017.2 hPa 1.02 mm - - -
1778055904 12.78° C 93% 1017.2 hPa 1.02 mm - - -
1778055604 13.33° C 95% 1017.2 hPa 1.02 mm - - -

* Rain latest hour (hover to see other rain measurements)
** Current wind speed in m/s (hover to see current wind gust speed)